Regional Weather Roundup
Issued by NWS Newport/Morehead, NC

Current Version | Previous Version | Graphics & Text | Print | Product List | Glossary Off
Versions: 1 2 3 4 5 6 7 8 9 10 11 12 13 14 15 16 17 18 19 20 21 22 23 24 25 26 27 28 29 30 31 32 33 34 35 36 37 38 39 40 41 42 43 44 45 46 47 48 49 50

000
ASUS42 KMHX 271510
RWRMHX
WEATHER ROUNDUP FOR EASTERN NORTH CAROLINA
NATIONAL WEATHER SERVICE NEWPORT/MOREHEAD CITY NC
1000 AM EST TUE JAN 27 2015

NOTE: "FAIR" INDICATES FEW OR NO CLOUDS BELOW 12,000 FEET
WITH NO SIGNIFICANT WEATHER AND/OR OBSTRUCTIONS TO VISIBILITY

NCZ015>017-031-032-045>047-102-103-271600-
NORTH COAST

CITY           SKY/WX    TMP DP  RH WIND       PRES   REMARKS
EDENTON        LGT SNOW  32  29  90 N13       29.79R
ELIZABETH CITY CLOUDY    32  28  86 N13       29.78R
KITTY HAWK     FLURRIES  32  32  99 NW12G17   29.73S
MANTEO         CLOUDY    32  30  93 NW10G21   29.75S

$$

NCZ045>047-081-094-103-104-271600-
CENTRAL COAST

CITY           SKY/WX    TMP DP  RH WIND       PRES   REMARKS
FRISCO         FLURRIES  34  32  92 N9G22     29.75R
SWANQUARTER    NOT AVBL

$$

NCZ095-097-098-100-101-271600-
SOUTHERN COAST

CITY           SKY/WX    TMP DP  RH WIND       PRES   REMARKS
BEAUFORT       PTSUNNY   38  30  73 N16       29.78R
CEDAR ISLAND   NOT AVBL
JACKSONVILLE   CLOUDY    39  30  70 N12       29.80R
PINEY ISLAND     N/A    N/A N/A N/A MISG      29.77R
WILMINGTON     CLOUDY    37  35  92 NW12      29.82R


$$

NCZ011>013-027>030-043-044-078>080-089-090>093-098-271600-
COASTAL PLAIN

CITY           SKY/WX    TMP DP  RH WIND       PRES   REMARKS
AHOSKIE        LGT SNOW  31  27  85 NW6       29.82R
CLINTON        CLOUDY    37  30  78 N6        29.83R
ELIZABETHTOWN  CLOUDY    39  26  61 NW6       29.83R
GOLDSBORO      PTSUNNY   36  36 100 NW8       29.81R
GREENVILLE     CLOUDY    34  30  86 N8        29.84S
HAVELOCK       CLOUDY    37  27  67 N18G25    29.80R
KENANSVILLE    CLOUDY    36  32  88 NW8       29.83R
KINSTON        PTSUNNY   36  28  75 N13       29.82R
NEW BERN       CLOUDY    38  27  64 N15G22    29.81R
RICHLANDS      CLOUDY    37  27  65 N9G16     29.81R
ROCKY MOUNT    CLOUDY    35  29  78 N10       29.83R
WASHINGTON     CLOUDY    32  27  82 N13G24    29.81R
WHITEVILLE     CLOUDY    40  27  59 NW3       29.82S

$$

AMZ130-135-150-152-154-156-158-170-250-252-270-ANZ085-086-088-633-658-670-271600-
MARINE OBSERVATIONS

STATION/POSITION TIME  TEMP    WIND        PRES    WAVE   SWELL
                       AIR SEA DIR/SP/G            HT/PER HT/PER
                 (UTC) (F)     (DEG/KT/KT) (MB)    (FT/S) (FT/S)
CHESAPEAKE LIGHT 1400   32     350/ 27/ 28 1007.0
64 E VA BEACH    1500   37 51  340/ 21/ 27 1004.9   13/13  10/13
DUCK             1500   33 43  340/ 21/ 24 1006.2
2 E DUCK         1500      44                N/A     8/12   5/12
10 NE DUCK       1500      45                N/A    11/12   7/12
OREGON INLET     1500   33 45  320/ 14/ 19 1006.9
13E OREGON INLT  1500      46                N/A    12/13   8/13
HATTERAS CG      1500   35 49  340/ 20/ 24 1007.5
DIAMOND BUOY     1500   39 69  330/ 21/ 27 1006.2    7/11   5/11
17 S OCRACOKE    NOT AVBL
CAPE LOOKOUT     1400   38     340/ 16/ 20 1007.2
BEAUFORT LAB     1500   36 49  350/ 12/ 19 1007.3
27 SE WRIGHTSVLE NOT AVBL
5 SE WRIGHTSVLE  1400   41 53  330/ 16/ 19 1008.6
225 S CAPE HAT   1411   59 71  300/ 25/ 31 1004.9   14/10
41 SE CHARLESTON 1500   44 68  310/ 17/ 21 1010.6    6/ 7

$$



USA.gov is the U.S. government's official web portal to all federal, state and local government web resources and services.